Вернуться в каталог

THORAD AGENA D DEB

АктивенPO
NORAD 42551·DEBRIS·🇺🇸 United States

Запущен Apr 8, 1970 с Vandenberg Space Force Base

Loading…

Ближайшие Пролёты (ближайшие 24 часа)

TLE

УстаревающийSource: Space-Track

Эпоха: Sep 9, 2026, 12:15 UTC

1 42551U 70025TH  26252.51054007  .00001335  00000-0  90636-3 0  9999
2 42551  99.9736 334.2031 0013470 184.0195 176.0861 14.02159004651457

Отслеживайте THORAD AGENA D DEB в реальном времени с AllMySat

Download on the App Store